Regional Weather Roundup
Issued by NWS

Home | Current Version | Previous Version | Graphics & Text | Print | Product List | Glossary On
Versions: 1 2 3 4 5 6 7 8 9 10 11 12 13 14 15 16 17 18 19 20 21 22 23 24 25 26 27 28 29 30 31 32 33 34 35 36 37 38 39 40 41 42 43 44 45 46 47 48 49 50
192
ASUS43 KDMX 261101
RWRIA

WEATHER ROUNDUP FOR IOWA
NATIONAL WEATHER SERVICE DES MOINES IA
600 AM CDT WED APR 26 2017

NOTE: "FAIR" INDICATES FEW OR NO CLOUDS BELOW 12,000 FEET WITH NO
SIGNIFICANT WEATHER AND/OR OBSTRUCTIONS TO VISIBILITY.

* - THESE STATIONS ARE NOT NWS STATIONS...THUS NOT UNDER NWS
QUALITY CONTROL.  THEY ALSO DO NOT REPORT WEATHER SUCH
AS PRECIPITATION OR FOG.

IAZ001>003-012>014-020>022-031>034-043>046-261200-
   NORTHWEST IOWA

CITY           SKY/WX    TMP DP  RH WIND       PRES   REMARKS
CARROLL *      CLOUDY    39  39 100 NW23G31   29.54R WCI  29
CHEROKEE *     CLOUDY    36  36 100 NW17G24   29.58R FOG     WCI  26
DENISON *      CLOUDY    37  37 100 NW12G22   29.61R WCI  30
LE MARS *      CLOUDY    36  36 100 NW18      29.64R FOG     WCI  25
ORANGE CITY *  DRIZZLE   36  36 100 NW14G20   29.61R WCI  27
SHELDON *      MIX PCPN  36  34  93 NW17      29.58R WCI  25
SIOUX CITY     CLOUDY    35  33  92 NW23G33   29.63R WCI  23
SPENCER        CLOUDY    38  37  97 NW18G26   29.55R WCI  28
STORM LAKE *   MIX PCPN  36  36 100 NW24G31   29.55F WCI  24
$$

IAZ055>058-069>071-079>083-090>094-261200-
   SOUTHWEST IOWA

CITY           SKY/WX    TMP DP  RH WIND       PRES   REMARKS
ATLANTIC *     CLOUDY    39  37  93 NW17G25   29.56F WCI  30
AUDUBON *      CLOUDY    39  36  87 NW13G22   29.56S FOG     WCI  32
CLARINDA *       N/A     41  39  93 NW14G23   29.59F
COUNCIL BLFS * CLOUDY    36  36 100 NW17G26   29.60S WCI  25
CRESTON *      CLOUDY    41  39  93 NW21      29.54S
HARLAN  *      CLOUDY    37  37 100 NW21G29   29.60F WCI  27
LAMONI         LGT RAIN  43  41  93 NW17      29.51R
RED OAK *      CLOUDY    39  37  93 NW13G23   29.58F WCI  32
SHENANDOAH *   CLOUDY    39  36  87 NW16G23   29.59F WCI  30
$$

IAZ047>049-059>061-072>074-084-261200-
   CENTRAL IOWA

CITY           SKY/WX    TMP DP  RH WIND       PRES   REMARKS
AMES           CLOUDY    45  43  93 NW15      29.48R
ANKENY *       CLOUDY    45  41  87 NW14G22   29.50R
BOONE *        CLOUDY    43  43 100 NW18G26   29.47R
CHARITON *     RAIN      45  43  93 NW14      29.49R
DES MOINES     CLOUDY    45  41  86 NW14      29.50R
GRINNELL*      RAIN      47  45  93 W15       29.45S
KNOXVILLE *    LGT RAIN  45  45 100 NW17      29.46S
MARSHALLTOWN   CLOUDY    47  45  93 W21       29.43S
NEWTON *       CLOUDY    46  45  93 W14       29.46R
PELLA *        RAIN      46  45  97 W14       29.47S
PERRY *        CLOUDY    43  40  89 NW15G22   29.51R
$$

IAZ004>006-015-016-023>025-035-036-261200-
   NORTH CENTRAL IOWA

CITY           SKY/WX    TMP DP  RH WIND       PRES   REMARKS
ALGONA *       CLOUDY    43  43 100 NW17G26   29.48R FOG
CLARION *      CLOUDY    45  45 100 MISG      29.45S
ESTHERVILLE    CLOUDY    38  38 100 NW23G29   29.51R WCI  27
FORT DODGE *   CLOUDY    41  36  81 W13G22    29.50R
MASON CITY     CLOUDY    47  46  97 W15       29.42S
WEBSTER CITY * MIX PCPN  43  41  93 NW22G31   29.45R
IOWA FALLS *   CLOUDY    46  44  91 W17       29.45R
$$

IAZ007>011-017>019-026>030-037>042-050>054-066-261200-
   NORTHEAST IOWA

CITY           SKY/WX    TMP DP  RH WIND       PRES   REMARKS
CEDAR RAPIDS   CLOUDY    54  54 100 W9        29.38F FOG
CHARLES CITY * CLOUDY    50  50 100 W9        29.39R
CLINTON *      MOCLDY    61  55  81 SW3       29.39R
DECORAH *      CLOUDY    57  55  94 S3        29.35F
DUBUQUE        MOCLDY    57  55  93 S8        29.38R
MONTICELLO *   CLOUDY    59  55  88 W8        29.38S
OELWEIN *      CLOUDY    55  55 100 W13       29.39S
WATERLOO       CLOUDY    50  48  93 W13       29.41R
$$

IAZ064-065-067-068-078-261200-
   EAST CENTRAL IOWA

CITY           SKY/WX    TMP DP  RH WIND       PRES   REMARKS
DAVENPORT      CLOUDY    61  55  81 S8        29.40R
IOWA CITY      CLOUDY    57  52  83 W12       29.39F
MUSCATINE *    CLOUDY    59  57  94 S5        29.41R
QUAD CITIES    LGT RAIN  64  52  64 W6        29.39R
$$

IAZ062-063-075>077-085>089-095>099-261200-
   SOUTHEAST IOWA

CITY           SKY/WX    TMP DP  RH WIND       PRES   REMARKS
BURLINGTON     RAIN      61  61 100 SW7       29.42R FOG
FAIRFIELD *    CLOUDY    52  48  87 W10G17    29.42S
FORT MADISON * LGT RAIN  63  61  94 S3        29.43R
KEOKUK *       LGT RAIN N/A N/A N/A S9G16     29.40F
OSKALOOSA *    CLOUDY    49  46  92 W14       29.44F
OTTUMWA        CLOUDY    50  48  93 W12       29.43F
WASHINGTON *   CLOUDY    52  50  93 W10       29.42R
$$

ABBREVIATIONS USED IN REMARKS
   TC - TEMPERATURES IN CELSIUS
  WCI - WIND CHILL INDEX
   HX - HEAT INDEX
  VSB - VISIBILITY
$$





USA.gov is the U.S. government's official web portal to all federal, state and local government web resources and services.